TimeCET,TemperatureF,Dew PointF,Humidity,Sea Level PressureIn,VisibilityMPH,Wind Direction,Wind SpeedMPH,Gust SpeedMPH,PrecipitationIn,Events,Conditions,WindDirDegrees,DateUTC
12:00 AM,51.8,50.0,94,29.92,6.2,Calm,Calm,-,N/A,,Mostly Cloudy,0,2013-02-17 23:00:00
12:30 AM,51.8,50.0,94,29.92,6.2,Calm,Calm,-,N/A,,Mostly Cloudy,0,2013-02-17 23:30:00
1:00 AM,50,47,85,29.94,9,Calm,Calm,,,,Scattered Clouds,,2013-02-18 00:00:00
1:00 AM,51.8,50.0,94,29.92,6.2,Calm,Calm,-,N/A,,Mostly Cloudy,0,2013-02-18 00:00:00
1:30 AM,51.8,50.0,94,29.92,6.2,Calm,Calm,-,N/A,,Mostly Cloudy,0,2013-02-18 00:30:00
2:00 AM,51.8,50.0,94,29.92,6.2,Calm,Calm,-,N/A,,Mostly Cloudy,0,2013-02-18 01:00:00
2:30 AM,51.8,50.0,94,29.89,6.2,ENE,1.2,-,N/A,,Mostly Cloudy,60,2013-02-18 01:30:00
3:00 AM,51.8,50.0,94,29.89,6.2,Calm,Calm,-,N/A,,Mostly Cloudy,0,2013-02-18 02:00:00
3:30 AM,51.8,50.0,94,29.89,6.2,Calm,Calm,-,N/A,,Mostly Cloudy,0,2013-02-18 02:30:00
4:00 AM,51.8,50.0,94,29.89,6.2,NNE,2.3,-,N/A,,Mostly Cloudy,30,2013-02-18 03:00:00
4:30 AM,51.8,50.0,94,29.86,6.2,NE,1.2,-,N/A,,Mostly Cloudy,50,2013-02-18 03:30:00
5:00 AM,51.8,50.0,94,29.89,6.2,NNE,2.3,-,N/A,,Mostly Cloudy,20,2013-02-18 04:00:00
5:30 AM,51.8,50.0,94,29.89,6.2,Variable,1.2,-,N/A,,Mostly Cloudy,0,2013-02-18 04:30:00
6:00 AM,51.8,50.0,94,29.89,6.2,Calm,Calm,-,N/A,,Mostly Cloudy,0,2013-02-18 05:00:00
6:30 AM,51.8,50.0,94,29.89,6.2,NNW,3.5,-,N/A,,Mostly Cloudy,340,2013-02-18 05:30:00
7:00 AM,50,48,90,29.89,7,ENE,1.2,,,,Partly Cloudy,70,2013-02-18 06:00:00
7:00 AM,51.8,50.0,94,29.89,6.2,ENE,2.3,-,N/A,,Mostly Cloudy,70,2013-02-18 06:00:00
7:30 AM,50.0,50.0,100,29.89,6.2,Calm,Calm,-,N/A,,Scattered Clouds,0,2013-02-18 06:30:00
8:00 AM,50.0,50.0,100,29.89,6.2,Variable,1.2,-,N/A,,Scattered Clouds,0,2013-02-18 07:00:00
8:30 AM,50.0,50.0,100,29.89,6.2,Calm,Calm,-,N/A,,Scattered Clouds,0,2013-02-18 07:30:00
9:00 AM,51.8,51.8,100,29.92,6.2,NE,1.2,-,N/A,,Scattered Clouds,50,2013-02-18 08:00:00
9:30 AM,53.6,51.8,94,29.92,6.2,Calm,Calm,-,N/A,,Scattered Clouds,0,2013-02-18 08:30:00
10:00 AM,53.6,51.8,94,29.92,6.2,Calm,Calm,-,N/A,,Scattered Clouds,0,2013-02-18 09:00:00
10:30 AM,55.4,53.6,94,29.92,6.2,Calm,Calm,-,N/A,,Scattered Clouds,0,2013-02-18 09:30:00
11:00 AM,57.2,53.6,88,29.92,6.2,Calm,Calm,-,N/A,,Scattered Clouds,0,2013-02-18 10:00:00
11:30 AM,59.0,53.6,82,29.92,6.2,Calm,Calm,-,N/A,,Scattered Clouds,0,2013-02-18 10:30:00
12:00 PM,59.0,51.8,77,29.92,6.2,Variable,1.2,-,N/A,,Scattered Clouds,0,2013-02-18 11:00:00
12:30 PM,60.8,51.8,72,29.92,6.2,Variable,1.2,-,N/A,,Scattered Clouds,0,2013-02-18 11:30:00
1:00 PM,61,47,51,29.92,9,East,1.2,,,,Partly Cloudy,80,2013-02-18 12:00:00
1:00 PM,60.8,51.8,72,29.92,6.2,Calm,Calm,-,N/A,,Scattered Clouds,0,2013-02-18 12:00:00
1:30 PM,60.8,53.6,77,29.89,6.2,Calm,Calm,-,N/A,,Scattered Clouds,0,2013-02-18 12:30:00
2:00 PM,62.6,51.8,68,29.89,6.2,SW,9.2,-,N/A,,Scattered Clouds,220,2013-02-18 13:00:00
2:30 PM,59.0,50.0,72,29.89,5.0,SW,10.4,-,N/A,,Scattered Clouds,230,2013-02-18 13:30:00
3:00 PM,59.0,50.0,72,29.89,5.0,SW,12.7,-,N/A,,Scattered Clouds,230,2013-02-18 14:00:00
3:17 PM,57.2,51.8,82,29.89,3.7,WSW,10.4,-,N/A,Rain,Light Rain,240,2013-02-18 14:17:00
3:30 PM,57.2,53.6,88,29.89,3.7,WSW,6.9,-,N/A,Rain,Light Rain,240,2013-02-18 14:30:00
4:00 PM,57.2,53.6,88,29.92,3.7,Calm,Calm,-,N/A,Rain,Light Rain,0,2013-02-18 15:00:00
4:30 PM,57.2,53.6,88,29.92,3.7,Calm,Calm,-,N/A,Rain,Light Rain,0,2013-02-18 15:30:00
4:55 PM,57.2,53.6,88,29.92,2.5,Calm,Calm,-,N/A,,Scattered Clouds,0,2013-02-18 15:55:00
5:00 PM,57.2,53.6,88,29.92,2.5,Calm,Calm,-,N/A,,Scattered Clouds,0,2013-02-18 16:00:00
5:30 PM,57.2,53.6,88,29.92,2.5,Calm,Calm,-,N/A,,Scattered Clouds,0,2013-02-18 16:30:00
6:00 PM,57.2,53.6,88,29.92,2.5,NE,1.2,-,N/A,,Scattered Clouds,50,2013-02-18 17:00:00
6:30 PM,55.4,53.6,94,29.92,2.5,ENE,2.3,-,N/A,,Mostly Cloudy,70,2013-02-18 17:30:00
7:00 PM,54,50,82,29.95,1,NNE,35.7,,,,Mist,30,2013-02-18 18:00:00
7:00 PM,55.4,53.6,94,29.95,2.5,NNE,3.5,-,N/A,,Mostly Cloudy,20,2013-02-18 18:00:00
7:30 PM,55.4,53.6,94,29.95,2.5,ENE,3.5,-,N/A,,Scattered Clouds,70,2013-02-18 18:30:00
8:00 PM,53.6,51.8,94,29.95,2.5,NE,3.5,-,N/A,,Mostly Cloudy,50,2013-02-18 19:00:00
8:30 PM,53.6,51.8,94,29.95,3.7,ENE,3.5,-,N/A,,Scattered Clouds,60,2013-02-18 19:30:00
9:00 PM,53.6,51.8,94,29.95,6.2,ENE,2.3,-,N/A,,Scattered Clouds,70,2013-02-18 20:00:00
9:30 PM,53.6,50.0,88,29.95,6.2,Calm,Calm,-,N/A,,Scattered Clouds,0,2013-02-18 20:30:00
10:00 PM,51.8,50.0,94,29.98,6.2,Calm,Calm,-,N/A,,Scattered Clouds,0,2013-02-18 21:00:00
10:30 PM,50.0,48.2,94,29.95,6.2,ENE,6.9,-,N/A,,Scattered Clouds,60,2013-02-18 21:30:00
11:00 PM,50.0,48.2,94,29.98,6.2,NE,2.3,-,N/A,,Scattered Clouds,50,2013-02-18 22:00:00
11:30 PM,50.0,50.0,100,29.98,6.2,NE,2.3,-,N/A,,Scattered Clouds,50,2013-02-18 22:30:00